Thunderstorms From: 24-06-2019 00:00 Until: 22:59 warning for: Thunderstorms Level: Yellow info button
Heavy rain and thunderstorms may lead to flooding and disruption to travel.What to expect There is a small chance that homes and businesses could be flooded quickly, with damage to some buildings from floodwater, lightning strikes, hail or strong winds There is a small chance of fast flowing or deep floodwater causing danger to life Where flooding or lightning strikes occur, there is a chance of delays and some cancellations to train and bus services Spray and sudden flooding could lead to difficult driving conditions and some road closures There is a slight chance that power cuts could occur and other services to some homes and businesses could be lost 
^^
WesterhopeWX Station Historical Data
 
Daily Summary for June 24, 2019 Units:  Metric    English   Both
Daily Weekly Monthly Yearly Custom
  Current: High: Low: Average:
Temperature: 14.6 °C 16.6 °C 12.8 °C 14.4 °C
Dew Point: 13.6 °C 15.8 °C 11.8 °C 13.5 °C
Humidity: 94% 95% 92% 94%
Wind Speed: 3.2km/h 7.9km/h 0.0km/h 1.3km/h
Wind Gust: 3.2km/h 11.3km/h - -
WindNNE - - East
Pressure: 1017.5 hPa 1018.5 hPa 1013.4 hPa -
Precipitation: 9.9 mm      
Historical Graphs
 
 
Tabular Data for June 24, 2019
Time Temperature Dew Point Pressure Wind Wind Speed Wind Gust Humidity Rainfall Rate (Hourly) solar
00:04 13.2 °C 11.9 °C 1018.5 hPa Calm   3.2 km/h 92% 1.5 mm 0.00 W/m2
00:09 13.2 °C 11.9 °C 1018.5 hPa NNE 3.2 km/h 6.4 km/h 92% 1.5 mm 0.00 W/m2
00:14 13.1 °C 11.8 °C 1018.2 hPa ENE 1.4 km/h 6.4 km/h 92% 1.5 mm 0.00 W/m2
00:19 13.1 °C 11.8 °C 1018.2 hPa North 3.2 km/h 8.0 km/h 92% 1.5 mm 0.00 W/m2
00:24 13.1 °C 11.8 °C 1018.2 hPa ENE 4.7 km/h 4.8 km/h 92% 1.3 mm 0.00 W/m2
00:29 13.1 °C 11.8 °C 1018.5 hPa NNE 3.2 km/h 6.4 km/h 92% 1.5 mm 0.00 W/m2
00:34 13.1 °C 11.8 °C 1018.2 hPa East 3.2 km/h 9.7 km/h 92% 1.3 mm 0.00 W/m2
00:39 13.1 °C 11.8 °C 1018.2 hPa NNE 3.2 km/h 4.8 km/h 92% 1.3 mm 0.00 W/m2
00:44 13.1 °C 11.8 °C 1018.2 hPa Calm   6.4 km/h 92% 1.0 mm 0.00 W/m2
00:49 13.1 °C 11.8 °C 1018.2 hPa NE 3.2 km/h 6.4 km/h 92% 1.0 mm 0.00 W/m2
00:54 13.1 °C 11.8 °C 1018.2 hPa Calm   1.6 km/h 92% 0.8 mm 0.00 W/m2
00:59 13.1 °C 11.8 °C 1018.2 hPa Calm   6.4 km/h 92% 0.5 mm 0.00 W/m2
01:04 13.1 °C 12.0 °C 1017.8 hPa NE 3.2 km/h 4.8 km/h 93% 0.5 mm 0.00 W/m2
01:09 13.1 °C 12.0 °C 1017.8 hPa NE 7.9 km/h 9.7 km/h 93% 0.5 mm 0.00 W/m2
01:14 13.1 °C 12.0 °C 1017.8 hPa North 3.2 km/h 4.8 km/h 93% 0.3 mm 0.00 W/m2
01:19 13.1 °C 12.0 °C 1017.8 hPa NE 3.2 km/h 6.4 km/h 93% 0.5 mm 0.00 W/m2
01:24 13.1 °C 12.0 °C 1017.8 hPa ENE 1.4 km/h 6.4 km/h 93% 0.5 mm 0.00 W/m2
01:29 13.1 °C 12.0 °C 1017.8 hPa Calm   1.6 km/h 93% 0.3 mm 0.00 W/m2
01:34 13.1 °C 12.0 °C 1017.8 hPa NE 1.4 km/h 3.2 km/h 93% 0.3 mm 0.00 W/m2
01:39 13.1 °C 12.0 °C 1017.8 hPa NNE 1.4 km/h 4.8 km/h 93% 0.3 mm 0.00 W/m2
01:44 13.1 °C 12.0 °C 1017.8 hPa NNE 1.4 km/h 4.8 km/h 93% 0.3 mm 0.00 W/m2
01:49 13.1 °C 12.0 °C 1017.8 hPa NE 1.4 km/h 4.8 km/h 93% 0.3 mm 0.00 W/m2
01:54 13.1 °C 12.0 °C 1017.5 hPa North 1.4 km/h 8.0 km/h 93% 0.3 mm 0.00 W/m2
01:59 13.1 °C 12.0 °C 1017.5 hPa ENE 4.7 km/h 6.4 km/h 93% 0.3 mm 0.00 W/m2
02:04 13.1 °C 12.0 °C 1017.2 hPa ENE 3.2 km/h 11.3 km/h 93% 0.3 mm 0.00 W/m2
02:09 13.1 °C 12.0 °C 1017.2 hPa ENE 1.4 km/h 4.8 km/h 93% 0.5 mm 0.00 W/m2
02:14 13.1 °C 12.0 °C 1017.2 hPa ENE 3.2 km/h 11.3 km/h 93% 0.5 mm 0.00 W/m2
02:19 13.0 °C 11.9 °C 1017.5 hPa East 1.4 km/h 6.4 km/h 93% 0.3 mm 0.00 W/m2
02:24 13.1 °C 12.0 °C 1017.5 hPa Calm   3.2 km/h 93% 0.3 mm 0.00 W/m2
02:29 13.1 °C 12.0 °C 1017.2 hPa ENE 1.4 km/h 4.8 km/h 93% 0.5 mm 0.00 W/m2
02:34 13.1 °C 12.0 °C 1016.8 hPa North 1.4 km/h 9.7 km/h 93% 0.5 mm 0.00 W/m2
02:39 13.0 °C 11.9 °C 1017.2 hPa ENE 1.4 km/h 8.0 km/h 93% 0.5 mm 0.00 W/m2
02:44 13.0 °C 11.9 °C 1017.2 hPa NNE 3.2 km/h 3.2 km/h 93% 0.5 mm 0.00 W/m2
02:49 12.9 °C 11.8 °C 1017.2 hPa NNW 1.4 km/h 6.4 km/h 93% 0.8 mm 0.00 W/m2
02:54 13.0 °C 11.9 °C 1017.2 hPa East 3.2 km/h 6.4 km/h 93% 0.8 mm 0.00 W/m2
02:59 12.9 °C 11.8 °C 1017.2 hPa ENE 1.4 km/h 3.2 km/h 93% 0.8 mm 0.00 W/m2
03:04 12.9 °C 11.8 °C 1017.2 hPa NE 1.4 km/h 9.7 km/h 93% 0.8 mm 0.00 W/m2
03:09 12.9 °C 11.8 °C 1017.2 hPa NE 3.2 km/h 3.2 km/h 93% 0.5 mm 0.00 W/m2
03:14 12.9 °C 11.8 °C 1017.2 hPa NNE 1.4 km/h 1.6 km/h 93% 0.8 mm 0.00 W/m2
03:19 13.0 °C 11.9 °C 1017.2 hPa Calm   3.2 km/h 93% 0.8 mm 0.00 W/m2
03:24 12.9 °C 12.0 °C 1016.8 hPa Calm   1.6 km/h 94% 0.8 mm 0.00 W/m2
03:29 12.9 °C 11.8 °C 1016.8 hPa NE 1.4 km/h 4.8 km/h 93% 0.8 mm 0.00 W/m2
03:34 12.9 °C 11.8 °C 1016.8 hPa NE 1.4 km/h 1.6 km/h 93% 0.8 mm 0.00 W/m2
03:39 12.9 °C 11.8 °C 1016.5 hPa NE 1.4 km/h 3.2 km/h 93% 0.8 mm 0.00 W/m2
03:44 12.9 °C 11.8 °C 1016.5 hPa NE 1.4 km/h 3.2 km/h 93% 0.8 mm 0.00 W/m2
03:49 12.9 °C 12.0 °C 1016.5 hPa Calm   3.2 km/h 94% 0.5 mm 0.00 W/m2
03:54 12.9 °C 12.0 °C 1016.5 hPa North 3.2 km/h 3.2 km/h 94% 0.8 mm 0.00 W/m2
03:59 12.9 °C 12.0 °C 1016.5 hPa NNE 1.4 km/h 4.8 km/h 94% 0.8 mm 0.00 W/m2
04:04 12.9 °C 12.0 °C 1016.5 hPa Calm   4.8 km/h 94% 1.0 mm 0.00 W/m2
04:09 12.9 °C 12.0 °C 1016.5 hPa ENE 4.7 km/h 4.8 km/h 94% 1.0 mm 0.00 W/m2
04:14 12.9 °C 12.0 °C 1016.5 hPa Calm   3.2 km/h 94% 0.8 mm 0.00 W/m2
04:19 12.9 °C 12.0 °C 1016.5 hPa NE 3.2 km/h 3.2 km/h 94% 1.0 mm 0.00 W/m2
04:24 12.9 °C 12.0 °C 1016.1 hPa Calm   1.6 km/h 94% 1.0 mm 0.00 W/m2
04:29 12.9 °C 12.0 °C 1016.1 hPa NE 3.2 km/h 6.4 km/h 94% 1.0 mm 0.00 W/m2
04:34 12.9 °C 12.0 °C 1016.1 hPa Calm   1.6 km/h 94% 1.0 mm 0.00 W/m2
04:39 12.9 °C 12.0 °C 1016.1 hPa Calm   4.8 km/h 94% 1.0 mm 0.00 W/m2
04:44 12.9 °C 12.0 °C 1016.1 hPa NE 1.4 km/h 6.4 km/h 94% 1.0 mm 0.00 W/m2
04:49 12.9 °C 12.0 °C 1015.8 hPa Calm   4.8 km/h 94% 1.0 mm 0.00 W/m2
04:54 12.9 °C 12.0 °C 1015.8 hPa NE 3.2 km/h 3.2 km/h 94% 1.0 mm 0.00 W/m2
04:59 12.8 °C 11.9 °C 1015.5 hPa NE 3.2 km/h 6.4 km/h 94% 1.0 mm 0.00 W/m2
05:04 12.8 °C 11.9 °C 1015.8 hPa Calm   8.0 km/h 94% 0.8 mm 0.00 W/m2
05:09 12.8 °C 11.9 °C 1015.5 hPa Calm   4.8 km/h 94% 1.0 mm 0.00 W/m2
05:14 12.8 °C 11.9 °C 1015.5 hPa Calm   6.4 km/h 94% 1.0 mm 0.00 W/m2
05:19 12.8 °C 11.9 °C 1015.5 hPa Calm   4.8 km/h 94% 0.8 mm 0.00 W/m2
05:24 12.8 °C 11.9 °C 1015.5 hPa NE 1.4 km/h 3.2 km/h 94% 0.8 mm 0.00 W/m2
05:29 12.8 °C 11.9 °C 1015.5 hPa Calm   4.8 km/h 94% 0.5 mm 0.00 W/m2
05:34 12.9 °C 12.0 °C 1015.5 hPa NE 1.4 km/h 9.7 km/h 94% 0.5 mm 0.00 W/m2
05:39 12.9 °C 12.0 °C 1015.5 hPa ENE 3.2 km/h 4.8 km/h 94% 0.5 mm 5.00 W/m2
05:44 12.8 °C 11.9 °C 1015.5 hPa NE 4.7 km/h 8.0 km/h 94% 0.5 mm 9.00 W/m2
05:49 12.9 °C 12.0 °C 1015.5 hPa NE 3.2 km/h 4.8 km/h 94% 0.5 mm 7.00 W/m2
05:54 12.9 °C 12.0 °C 1015.5 hPa NE 3.2 km/h 8.0 km/h 94% 0.3 mm 7.00 W/m2
05:59 12.8 °C 11.9 °C 1015.1 hPa Calm   9.7 km/h 94% 0.3 mm 5.00 W/m2
06:04 12.8 °C 11.9 °C 1015.1 hPa North 6.4 km/h 6.4 km/h 94% 0.3 mm 9.00 W/m2
06:09 12.9 °C 12.0 °C 1015.5 hPa Calm   8.0 km/h 94% 0.0 mm 12.00 W/m2
06:14 12.9 °C 12.0 °C 1015.5 hPa East 3.2 km/h 3.2 km/h 94% 0.0 mm 12.00 W/m2
06:19 12.9 °C 12.0 °C 1015.1 hPa NE 1.4 km/h 4.8 km/h 94% 0.0 mm 12.00 W/m2
06:24 12.9 °C 12.0 °C 1015.1 hPa Calm   6.4 km/h 94% 0.0 mm 16.00 W/m2
06:29 12.9 °C 12.0 °C 1015.1 hPa Calm   4.8 km/h 94% 0.0 mm 30.00 W/m2
06:34 12.9 °C 12.0 °C 1014.8 hPa NNE 3.2 km/h 6.4 km/h 94% 0.0 mm 32.00 W/m2
06:39 12.9 °C 12.0 °C 1014.8 hPa Calm   4.8 km/h 94% 0.0 mm 25.00 W/m2
06:44 12.9 °C 12.0 °C 1015.1 hPa Calm   8.0 km/h 94% 0.0 mm 19.00 W/m2
06:49 12.9 °C 12.0 °C 1015.1 hPa NNE 1.4 km/h 3.2 km/h 94% 0.0 mm 18.00 W/m2
06:54 13.0 °C 12.1 °C 1015.1 hPa Calm   3.2 km/h 94% 0.0 mm 18.00 W/m2
06:59 13.0 °C 12.1 °C 1015.1 hPa Calm   3.2 km/h 94% 0.0 mm 16.00 W/m2
07:04 13.0 °C 12.1 °C 1015.5 hPa Calm   4.8 km/h 94% 0.0 mm 12.00 W/m2
07:09 13.1 °C 12.2 °C 1015.1 hPa ENE 4.7 km/h 4.8 km/h 94% 0.0 mm 19.00 W/m2
07:14 13.1 °C 12.2 °C 1015.1 hPa Calm   3.2 km/h 94% 0.0 mm 23.00 W/m2
07:19 13.1 °C 12.2 °C 1015.1 hPa NNE 1.4 km/h 3.2 km/h 94% 0.0 mm 28.00 W/m2
07:24 13.1 °C 12.2 °C 1015.1 hPa NE 4.7 km/h 4.8 km/h 94% 0.0 mm 33.00 W/m2
07:29 13.1 °C 12.2 °C 1015.1 hPa NNE 3.2 km/h 3.2 km/h 94% 0.0 mm 33.00 W/m2
07:34 13.2 °C 12.4 °C 1014.8 hPa NE 1.4 km/h 4.8 km/h 95% 0.0 mm 33.00 W/m2
07:39 13.2 °C 12.3 °C 1015.1 hPa Calm   1.6 km/h 94% 0.0 mm 33.00 W/m2
07:44 13.2 °C 12.4 °C 1015.1 hPa ENE 1.4 km/h 3.2 km/h 95% 0.0 mm 33.00 W/m2
07:49 13.3 °C 12.4 °C 1015.1 hPa Calm   1.6 km/h 94% 0.0 mm 28.00 W/m2
07:54 13.3 °C 12.5 °C 1015.1 hPa NE 1.4 km/h 4.8 km/h 95% 0.0 mm 37.00 W/m2
07:59 13.3 °C 12.4 °C 1015.1 hPa NNE 1.4 km/h 4.8 km/h 94% 0.0 mm 44.00 W/m2
08:04 13.4 °C 12.5 °C 1015.1 hPa Calm   1.6 km/h 94% 0.0 mm 47.00 W/m2
08:09 13.4 °C 12.5 °C 1015.1 hPa Calm   1.6 km/h 94% 0.0 mm 39.00 W/m2
08:14 13.4 °C 12.5 °C 1015.1 hPa NNW 1.4 km/h 3.2 km/h 94% 0.0 mm 42.00 W/m2
08:19 13.4 °C 12.5 °C 1015.1 hPa Calm     94% 0.0 mm 33.00 W/m2
08:24 13.5 °C 12.6 °C 1015.1 hPa NE 1.4 km/h 3.2 km/h 94% 0.0 mm 33.00 W/m2
08:29 13.5 °C 12.7 °C 1015.1 hPa NNW 1.4 km/h 1.6 km/h 95% 0.0 mm 39.00 W/m2
08:34 13.6 °C 12.8 °C 1015.1 hPa North 1.4 km/h 6.4 km/h 95% 0.0 mm 42.00 W/m2
08:39 13.6 °C 12.8 °C 1015.1 hPa NNE 3.2 km/h 6.4 km/h 95% 0.0 mm 42.00 W/m2
08:44 13.6 °C 12.8 °C 1015.1 hPa Calm   4.8 km/h 95% 0.0 mm 46.00 W/m2
08:49 13.6 °C 12.8 °C 1015.1 hPa North 1.4 km/h 3.2 km/h 95% 0.0 mm 47.00 W/m2
08:54 13.6 °C 12.8 °C 1015.1 hPa Calm   8.0 km/h 95% 0.0 mm 54.00 W/m2
08:59 13.7 °C 12.9 °C 1015.1 hPa North 3.2 km/h 4.8 km/h 95% 0.0 mm 60.00 W/m2
09:04 13.7 °C 12.9 °C 1015.1 hPa Calm   1.6 km/h 95% 0.0 mm 56.00 W/m2
09:09 13.7 °C 12.9 °C 1015.1 hPa ENE 1.4 km/h 3.2 km/h 95% 0.0 mm 44.00 W/m2
09:14 13.7 °C 12.9 °C 1015.1 hPa NE 1.4 km/h 4.8 km/h 95% 0.0 mm 37.00 W/m2
09:19 13.8 °C 13.0 °C 1015.1 hPa Calm   4.8 km/h 95% 0.0 mm 42.00 W/m2
09:24 13.8 °C 13.0 °C 1015.5 hPa Calm   4.8 km/h 95% 0.0 mm 40.00 W/m2
09:29 13.8 °C 13.0 °C 1015.1 hPa NE 1.4 km/h 1.6 km/h 95% 0.0 mm 46.00 W/m2
09:34 13.8 °C 13.0 °C 1015.1 hPa Calm   3.2 km/h 95% 0.0 mm 54.00 W/m2
09:39 13.8 °C 13.0 °C 1015.1 hPa NNW 1.4 km/h 4.8 km/h 95% 0.0 mm 63.00 W/m2
09:44 13.9 °C 13.1 °C 1015.1 hPa Calm     95% 0.0 mm 62.00 W/m2
09:49 13.9 °C 13.1 °C 1015.1 hPa Calm   3.2 km/h 95% 0.0 mm 54.00 W/m2
09:54 14.1 °C 13.3 °C 1015.1 hPa East 3.2 km/h 4.8 km/h 95% 0.0 mm 76.00 W/m2
09:59 14.1 °C 13.3 °C 1015.1 hPa NE 1.4 km/h 4.8 km/h 95% 0.0 mm 74.00 W/m2
10:04 14.1 °C 13.3 °C 1015.1 hPa NE 3.2 km/h 6.4 km/h 95% 0.0 mm 97.00 W/m2
10:09 14.2 °C 13.4 °C 1014.8 hPa NE 1.4 km/h 4.8 km/h 95% 0.0 mm 100.00 W/m2
10:14 14.3 °C 13.5 °C 1015.1 hPa NE 1.4 km/h 6.4 km/h 95% 0.0 mm 109.00 W/m2
10:19 14.3 °C 13.5 °C 1015.1 hPa Calm     95% 0.3 mm 116.00 W/m2
10:24 14.4 °C 13.6 °C 1014.8 hPa Calm     95% 0.3 mm 125.00 W/m2
10:29 14.6 °C 13.8 °C 1014.8 hPa NE 3.2 km/h 4.8 km/h 95% 0.3 mm 127.00 W/m2
10:34 14.6 °C 13.8 °C 1015.1 hPa Calm     95% 0.3 mm 100.00 W/m2
10:39 14.6 °C 13.8 °C 1015.1 hPa Calm   4.8 km/h 95% 0.3 mm 76.00 W/m2
10:44 14.6 °C 13.8 °C 1015.1 hPa North 3.2 km/h 3.2 km/h 95% 0.3 mm 79.00 W/m2
10:49 14.6 °C 13.8 °C 1015.1 hPa Calm   1.6 km/h 95% 0.3 mm 95.00 W/m2
10:54 14.6 °C 13.8 °C 1014.8 hPa North 3.2 km/h 3.2 km/h 95% 0.3 mm 111.00 W/m2
10:59 14.7 °C 13.9 °C 1015.1 hPa Calm   4.8 km/h 95% 0.3 mm 130.00 W/m2
11:04 14.8 °C 14.0 °C 1014.8 hPa North 1.4 km/h 3.2 km/h 95% 0.3 mm 142.00 W/m2
11:09 14.9 °C 14.1 °C 1014.8 hPa North 1.4 km/h 4.8 km/h 95% 0.3 mm 163.00 W/m2
11:14 15.0 °C 14.2 °C 1014.8 hPa Calm   3.2 km/h 95% 0.3 mm 207.00 W/m2
11:19 15.2 °C 14.4 °C 1014.4 hPa North 3.2 km/h 3.2 km/h 95% 0.0 mm 178.00 W/m2
11:24 15.3 °C 14.5 °C 1014.8 hPa North 3.2 km/h 4.8 km/h 95% 0.0 mm 139.00 W/m2
11:29 15.3 °C 14.5 °C 1014.8 hPa North 4.7 km/h 4.8 km/h 95% 0.0 mm 178.00 W/m2
11:34 15.4 °C 14.6 °C 1014.8 hPa North 3.2 km/h 3.2 km/h 95% 0.0 mm 223.00 W/m2
11:39 15.5 °C 14.7 °C 1014.8 hPa NNE 1.4 km/h 4.8 km/h 95% 0.0 mm 218.00 W/m2
11:44 15.6 °C 14.8 °C 1014.4 hPa Calm   3.2 km/h 95% 0.0 mm 199.00 W/m2
11:49 15.6 °C 14.8 °C 1014.4 hPa NW 4.7 km/h 6.4 km/h 95% 0.0 mm 255.00 W/m2
11:54 15.6 °C 14.8 °C 1014.4 hPa North 1.4 km/h 3.2 km/h 95% 0.0 mm 151.00 W/m2
11:59 15.6 °C 14.8 °C 1014.8 hPa North 3.2 km/h 6.4 km/h 95% 0.0 mm 211.00 W/m2
12:04 15.7 °C 14.9 °C 1014.8 hPa North 3.2 km/h 3.2 km/h 95% 0.0 mm 190.00 W/m2
12:09 15.8 °C 15.0 °C 1014.8 hPa Calm   1.6 km/h 95% 0.0 mm 216.00 W/m2
12:14 15.8 °C 15.0 °C 1014.8 hPa ENE 3.2 km/h 3.2 km/h 95% 0.0 mm 151.00 W/m2
12:19 15.8 °C 15.0 °C 1014.8 hPa Calm   1.6 km/h 95% 0.0 mm 163.00 W/m2
12:24 15.8 °C 15.0 °C 1014.8 hPa Calm   3.2 km/h 95% 0.0 mm 218.00 W/m2
12:29 15.9 °C 15.1 °C 1014.8 hPa North 1.4 km/h 3.2 km/h 95% 0.0 mm 193.00 W/m2
12:34 16.1 °C 15.3 °C 1014.8 hPa NE 3.2 km/h 4.8 km/h 95% 0.0 mm 209.00 W/m2
12:39 16.1 °C 15.3 °C 1014.8 hPa North 1.4 km/h 3.2 km/h 95% 0.0 mm 232.00 W/m2
12:44 16.2 °C 15.4 °C 1014.4 hPa North 3.2 km/h 4.8 km/h 95% 0.0 mm 193.00 W/m2
12:49 16.2 °C 15.4 °C 1014.4 hPa NNE 1.4 km/h 3.2 km/h 95% 0.0 mm 230.00 W/m2
12:54 16.2 °C 15.4 °C 1014.4 hPa Calm   6.4 km/h 95% 0.0 mm 220.00 W/m2
12:59 16.2 °C 15.4 °C 1014.4 hPa Calm   1.6 km/h 95% 0.0 mm 279.00 W/m2
13:04 16.3 °C 15.5 °C 1014.4 hPa Calm     95% 0.0 mm 209.00 W/m2
13:09 16.4 °C 15.6 °C 1014.4 hPa Calm   3.2 km/h 95% 0.0 mm 327.00 W/m2
13:14 16.5 °C 15.7 °C 1014.4 hPa Calm   4.8 km/h 95% 0.0 mm 236.00 W/m2
13:19 16.4 °C 15.6 °C 1014.4 hPa NNE 1.4 km/h 3.2 km/h 95% 0.0 mm 193.00 W/m2
13:24 16.5 °C 15.7 °C 1014.4 hPa NE 1.4 km/h 1.6 km/h 95% 0.0 mm 214.00 W/m2
13:29 16.6 °C 15.8 °C 1014.4 hPa Calm   1.6 km/h 95% 0.0 mm 139.00 W/m2
13:34 16.6 °C 15.8 °C 1014.8 hPa Calm   3.2 km/h 95% 0.0 mm 100.00 W/m2
13:39 16.4 °C 15.4 °C 1014.8 hPa NE 1.4 km/h 4.8 km/h 94% 0.0 mm 98.00 W/m2
13:44 16.3 °C 15.3 °C 1014.8 hPa Calm   1.6 km/h 94% 0.0 mm 102.00 W/m2
13:49 16.2 °C 15.2 °C 1014.8 hPa Calm   4.8 km/h 94% 0.0 mm 81.00 W/m2
13:54 16.1 °C 15.1 °C 1015.1 hPa Calm     94% 0.0 mm 46.00 W/m2
13:59 16.1 °C 15.1 °C 1015.1 hPa Calm     94% 0.0 mm 42.00 W/m2
14:04 16.1 °C 15.1 °C 1015.1 hPa Calm     94% 0.0 mm 40.00 W/m2
14:09 16.1 °C 15.1 °C 1014.8 hPa Calm   6.4 km/h 94% 1.0 mm 46.00 W/m2
14:14 16.1 °C 15.1 °C 1015.5 hPa Calm   1.6 km/h 94% 2.0 mm 18.00 W/m2
14:19 16.1 °C 15.1 °C 1015.5 hPa Calm   6.4 km/h 94% 3.0 mm 46.00 W/m2
14:24 16.0 °C 15.0 °C 1015.8 hPa Calm     94% 4.1 mm 32.00 W/m2
14:29 16.0 °C 15.0 °C 1015.1 hPa Calm     94% 4.6 mm 74.00 W/m2
14:34 16.1 °C 15.1 °C 1015.1 hPa Calm     94% 5.1 mm 102.00 W/m2
14:39 16.1 °C 15.1 °C 1014.8 hPa ENE 1.4 km/h 4.8 km/h 94% 5.6 mm 134.00 W/m2
14:44 16.0 °C 15.0 °C 1014.8 hPa Calm   4.8 km/h 94% 5.8 mm 160.00 W/m2
14:49 16.0 °C 15.0 °C 1014.1 hPa ENE 1.4 km/h 9.7 km/h 94% 5.8 mm 185.00 W/m2
14:54 16.1 °C 15.1 °C 1014.8 hPa SW 3.2 km/h 3.2 km/h 94% 5.8 mm 62.00 W/m2
14:59 15.9 °C 14.9 °C 1015.1 hPa Calm   8.0 km/h 94% 5.8 mm 46.00 W/m2
15:04 15.9 °C 14.9 °C 1015.1 hPa Calm     94% 5.8 mm 51.00 W/m2
15:09 15.9 °C 14.9 °C 1015.5 hPa Calm     94% 4.8 mm 32.00 W/m2
15:14 15.8 °C 14.8 °C 1014.8 hPa Calm     94% 3.6 mm 49.00 W/m2
15:19 15.7 °C 14.7 °C 1014.8 hPa NE 3.2 km/h 6.4 km/h 94% 2.8 mm 58.00 W/m2
15:24 15.7 °C 14.7 °C 1015.1 hPa ENE 1.4 km/h 3.2 km/h 94% 1.8 mm 47.00 W/m2
15:29 15.6 °C 14.6 °C 1015.1 hPa Calm   1.6 km/h 94% 1.3 mm 35.00 W/m2
15:34 15.6 °C 14.6 °C 1015.1 hPa East 1.4 km/h 3.2 km/h 94% 0.5 mm 37.00 W/m2
15:39 15.4 °C 14.4 °C 1015.1 hPa North 1.4 km/h 4.8 km/h 94% 0.3 mm 72.00 W/m2
15:44 15.4 °C 14.4 °C 1015.1 hPa Calm   3.2 km/h 94% 0.0 mm 58.00 W/m2
15:49 15.4 °C 14.4 °C 1015.1 hPa Calm   4.8 km/h 94% 0.0 mm 76.00 W/m2
15:54 15.5 °C 14.5 °C 1015.1 hPa NE 1.4 km/h 1.6 km/h 94% 0.0 mm 44.00 W/m2
15:59 15.5 °C 14.5 °C 1015.1 hPa NNE 1.4 km/h 1.6 km/h 94% 0.0 mm 83.00 W/m2
16:04 15.6 °C 14.6 °C 1014.8 hPa ENE 1.4 km/h 3.2 km/h 94% 0.0 mm 104.00 W/m2
16:09 15.7 °C 14.9 °C 1014.4 hPa ENE 4.7 km/h 4.8 km/h 95% 0.0 mm 90.00 W/m2
16:14 15.7 °C 14.9 °C 1014.1 hPa East 1.4 km/h 8.0 km/h 95% 0.0 mm 100.00 W/m2
16:19 15.6 °C 14.6 °C 1013.4 hPa North 6.4 km/h 9.7 km/h 94% 0.0 mm 97.00 W/m2
16:24 15.5 °C 14.5 °C 1014.8 hPa SW 3.2 km/h 3.2 km/h 94% 0.0 mm 37.00 W/m2
16:29 15.4 °C 14.4 °C 1015.1 hPa Calm   3.2 km/h 94% 0.0 mm 46.00 W/m2
16:34 15.4 °C 14.4 °C 1015.1 hPa Calm   4.8 km/h 94% 0.0 mm 53.00 W/m2
16:39 15.3 °C 14.3 °C 1015.1 hPa Calm   1.6 km/h 94% 0.0 mm 44.00 W/m2
16:44 15.3 °C 14.3 °C 1015.1 hPa Calm   4.8 km/h 94% 0.0 mm 74.00 W/m2
16:49 15.2 °C 14.2 °C 1015.1 hPa Calm   3.2 km/h 94% 0.0 mm 69.00 W/m2
16:54 15.1 °C 14.1 °C 1015.1 hPa Calm   1.6 km/h 94% 0.0 mm 90.00 W/m2
16:59 15.2 °C 14.2 °C 1015.1 hPa ENE 1.4 km/h 3.2 km/h 94% 0.0 mm 134.00 W/m2
17:04 15.2 °C 14.2 °C 1014.8 hPa Calm   1.6 km/h 94% 0.3 mm 146.00 W/m2
17:09 15.3 °C 14.5 °C 1015.1 hPa NE 1.4 km/h 4.8 km/h 95% 0.3 mm 134.00 W/m2
17:14 15.4 °C 14.6 °C 1015.1 hPa Calm   1.6 km/h 95% 0.3 mm 93.00 W/m2
17:19 15.4 °C 14.4 °C 1015.1 hPa Calm   3.2 km/h 94% 0.3 mm 114.00 W/m2
17:24 15.5 °C 14.5 °C 1014.8 hPa NE 4.7 km/h 4.8 km/h 94% 0.3 mm 128.00 W/m2
17:29 15.5 °C 14.5 °C 1014.8 hPa NE 1.4 km/h 8.0 km/h 94% 0.3 mm 107.00 W/m2
17:34 15.6 °C 14.6 °C 1014.8 hPa NNE 1.4 km/h 3.2 km/h 94% 0.3 mm 141.00 W/m2
17:39 15.6 °C 14.6 °C 1015.1 hPa NNE 1.4 km/h 4.8 km/h 94% 0.3 mm 130.00 W/m2
17:44 15.6 °C 14.6 °C 1015.1 hPa ENE 4.7 km/h 4.8 km/h 94% 0.3 mm 118.00 W/m2
17:49 15.7 °C 14.7 °C 1015.1 hPa North 1.4 km/h 3.2 km/h 94% 0.3 mm 79.00 W/m2
17:54 15.7 °C 14.9 °C 1015.1 hPa Calm   3.2 km/h 95% 0.3 mm 104.00 W/m2
17:59 15.7 °C 14.9 °C 1015.1 hPa NNE 1.4 km/h 6.4 km/h 95% 0.3 mm 95.00 W/m2
18:04 15.7 °C 14.9 °C 1015.1 hPa NNW 1.4 km/h 4.8 km/h 95% 0.0 mm 132.00 W/m2
18:09 15.8 °C 15.0 °C 1015.1 hPa Calm   1.6 km/h 95% 0.0 mm 192.00 W/m2
18:14 16.1 °C 15.3 °C 1015.1 hPa Calm   1.6 km/h 95% 0.0 mm 149.00 W/m2
18:19 16.1 °C 15.3 °C 1015.1 hPa Calm   3.2 km/h 95% 0.0 mm 200.00 W/m2
18:24 16.2 °C 15.4 °C 1015.1 hPa NNE 1.4 km/h 6.4 km/h 95% 0.0 mm 192.00 W/m2
18:29 16.1 °C 15.1 °C 1015.5 hPa East 1.4 km/h 3.2 km/h 94% 0.0 mm 139.00 W/m2
18:34 16.1 °C 15.3 °C 1015.1 hPa Calm   3.2 km/h 95% 0.0 mm 123.00 W/m2
18:39 16.0 °C 15.0 °C 1015.1 hPa NNE 1.4 km/h 4.8 km/h 94% 0.0 mm 123.00 W/m2
18:44 15.9 °C 14.9 °C 1015.1 hPa NNW 1.4 km/h 6.4 km/h 94% 0.0 mm 111.00 W/m2
18:49 15.9 °C 14.9 °C 1015.1 hPa Calm   4.8 km/h 94% 0.0 mm 139.00 W/m2
18:54 15.9 °C 14.9 °C 1015.5 hPa North 1.4 km/h 4.8 km/h 94% 0.0 mm 204.00 W/m2
18:59 15.9 °C 14.9 °C 1015.5 hPa NNE 3.2 km/h 4.8 km/h 94% 0.0 mm 116.00 W/m2
19:04 15.8 °C 14.8 °C 1015.5 hPa Calm   6.4 km/h 94% 0.0 mm 60.00 W/m2
19:09 15.8 °C 14.8 °C 1015.5 hPa Calm   1.6 km/h 94% 0.0 mm 54.00 W/m2
19:14 15.8 °C 14.8 °C 1015.5 hPa ENE 1.4 km/h 4.8 km/h 94% 0.0 mm 88.00 W/m2
19:19 15.7 °C 14.7 °C 1015.8 hPa NNE 1.4 km/h 3.2 km/h 94% 0.0 mm 70.00 W/m2
19:24 15.7 °C 14.7 °C 1015.8 hPa Calm   3.2 km/h 94% 0.0 mm 54.00 W/m2
19:29 15.7 °C 14.7 °C 1015.8 hPa NNE 1.4 km/h 4.8 km/h 94% 0.0 mm 76.00 W/m2
19:34 15.7 °C 14.7 °C 1015.8 hPa Calm   3.2 km/h 94% 0.0 mm 49.00 W/m2
19:39 15.6 °C 14.6 °C 1015.8 hPa NNE 1.4 km/h 6.4 km/h 94% 0.0 mm 46.00 W/m2
19:44 15.6 °C 14.6 °C 1016.1 hPa Calm   3.2 km/h 94% 0.0 mm 30.00 W/m2
19:49 15.5 °C 14.5 °C 1016.1 hPa NE 1.4 km/h 4.8 km/h 94% 0.0 mm 44.00 W/m2
19:54 15.4 °C 14.4 °C 1016.1 hPa NNE 4.7 km/h 4.8 km/h 94% 0.0 mm 37.00 W/m2
19:59 15.4 °C 14.4 °C 1016.1 hPa North 3.2 km/h 6.4 km/h 94% 0.0 mm 58.00 W/m2
20:04 15.4 °C 14.4 °C 1016.1 hPa NNE 3.2 km/h 8.0 km/h 94% 0.0 mm 65.00 W/m2
20:09 15.4 °C 14.4 °C 1016.1 hPa Calm   3.2 km/h 94% 0.0 mm 44.00 W/m2
20:14 15.3 °C 14.3 °C 1016.1 hPa Calm   3.2 km/h 94% 0.0 mm 30.00 W/m2
20:19 15.3 °C 14.3 °C 1016.1 hPa Calm   1.6 km/h 94% 0.0 mm 28.00 W/m2
20:24 15.2 °C 14.2 °C 1016.5 hPa NE 1.4 km/h 4.8 km/h 94% 0.0 mm 23.00 W/m2
20:29 15.2 °C 14.2 °C 1016.5 hPa Calm   3.2 km/h 94% 0.0 mm 12.00 W/m2
20:34 15.1 °C 14.1 °C 1016.5 hPa Calm   4.8 km/h 94% 0.0 mm 11.00 W/m2
20:39 15.1 °C 14.1 °C 1016.8 hPa Calm     94% 0.0 mm 9.00 W/m2
20:44 15.0 °C 14.0 °C 1016.8 hPa Calm     94% 0.0 mm 9.00 W/m2
20:49 15.0 °C 14.0 °C 1016.8 hPa Calm     94% 0.0 mm 7.00 W/m2
20:54 15.0 °C 14.0 °C 1016.8 hPa East 1.4 km/h 3.2 km/h 94% 0.0 mm 7.00 W/m2
20:59 15.0 °C 14.0 °C 1016.8 hPa East 1.4 km/h 1.6 km/h 94% 0.0 mm 5.00 W/m2
21:04 15.0 °C 14.0 °C 1016.8 hPa NNE 1.4 km/h 3.2 km/h 94% 0.0 mm 0.00 W/m2
21:09 15.0 °C 14.0 °C 1016.8 hPa Calm   3.2 km/h 94% 0.0 mm 0.00 W/m2
21:14 14.9 °C 13.9 °C 1016.8 hPa Calm   4.8 km/h 94% 0.0 mm 5.00 W/m2
21:19 14.9 °C 13.9 °C 1016.8 hPa Calm   3.2 km/h 94% 0.0 mm 0.00 W/m2
21:24 14.9 °C 13.9 °C 1016.8 hPa ENE 1.4 km/h 3.2 km/h 94% 0.0 mm 0.00 W/m2
21:29 14.9 °C 13.9 °C 1017.2 hPa Calm   1.6 km/h 94% 0.0 mm 0.00 W/m2
21:34 14.9 °C 13.9 °C 1017.2 hPa Calm   1.6 km/h 94% 0.0 mm 0.00 W/m2
21:39 14.8 °C 13.8 °C 1017.2 hPa Calm     94% 0.0 mm 0.00 W/m2
21:44 14.8 °C 13.8 °C 1017.2 hPa Calm     94% 0.0 mm 0.00 W/m2
21:49 14.8 °C 13.8 °C 1017.2 hPa Calm     94% 0.0 mm 0.00 W/m2
21:54 14.7 °C 13.7 °C 1017.5 hPa Calm     94% 0.0 mm 0.00 W/m2
21:59 14.7 °C 13.7 °C 1017.5 hPa Calm     94% 0.0 mm 0.00 W/m2
22:04 14.7 °C 13.7 °C 1017.5 hPa Calm     94% 0.0 mm 0.00 W/m2
22:09 14.7 °C 13.7 °C 1017.5 hPa Calm     94% 0.0 mm 0.00 W/m2
22:14 14.7 °C 13.7 °C 1017.5 hPa Calm     94% 0.0 mm 0.00 W/m2
22:19 14.7 °C 13.7 °C 1017.5 hPa ENE 1.4 km/h 1.6 km/h 94% 0.0 mm 0.00 W/m2
22:24 14.6 °C 13.6 °C 1017.5 hPa NE 1.4 km/h 3.2 km/h 94% 0.0 mm 0.00 W/m2
22:29 14.6 °C 13.6 °C 1017.5 hPa Calm     94% 0.0 mm 0.00 W/m2
22:34 14.6 °C 13.6 °C 1017.5 hPa NNE 3.2 km/h 3.2 km/h 94% 0.0 mm 0.00 W/m2
Westerhope, Newcastle upon Tyne, UK
Compliments of Weather Underground - 4 mb